Location: Newark
(34.9471°N, 136.1778°E)
Time: 21:45:14
(UTC+00:00)

LilacSat-2 - Visible Passes

Search period start: 21 February 2020 00:00
Search period end: 02 March 2020 00:00
Orbit: 512 x 536 km, 97.5° (Epoch: 21 February)

Date Brightness Start Highest point End Pass type
(mag) Time Alt. Az. Time Alt. Az. Time Alt. Az.
21 Feb ? 09:10:33 10° WSW 09:11:53 12° W 09:13:14 10° WNW visible
21 Feb ? 20:43:40 10° NNE 20:47:29 89° SE 20:51:16 10° SSW visible
22 Feb ? 20:31:29 10° NNE 20:35:14 59° E 20:38:59 10° S visible
23 Feb ? 20:19:23 10° NNE 20:22:57 39° E 20:26:33 10° S visible
24 Feb ? 20:07:24 10° NE 20:10:41 27° E 20:13:57 10° SSE visible
25 Feb ? 19:55:35 10° NE 19:58:22 19° E 20:01:09 10° SE visible
26 Feb ? 19:44:06 10° ENE 19:46:03 13° E 19:47:59 10° SE visible
28 Feb ? 20:52:06 10° N 20:55:54 70° WNW 20:59:42 10° SSW visible
29 Feb ? 20:39:50 10° NNE 20:43:40 79° ESE 20:47:29 10° S visible
01 Mar ? 20:27:39 10° NNE 20:31:24 52° E 20:35:09 10° S visible
